User: anonymous   Login
Location: Arborea
(39.7744°N, 8.5819°E)
Time: 02:52:52
(UTC+00:00)
Language:

OAO 3 Rocket - Orbit

View from above orbital plane
View from above orbital plane
View from above satellite
View from above satellite

Ground track
Ground track

The orbit data is extracted from the following two-line orbital elements,

1 06155U 72065B   22018.54463033  .00000408  00000-0  67210-4 0  9990
2 06155  35.0039 114.1738 0038250 319.2269  40.5570 14.71788379618128
Epoch (UTC): 18 January 2022 13:04:16
Eccentricity: 0.0038250
inclination: 35.0039°
perigee height: 628 km
apogee height: 682 km
right ascension of ascending node: 114.1738°
argument of perigee: 319.2269°
revolutions per day: 14.71788379
mean anomaly at epoch: 40.5570°
orbit number at epoch: 61812

The dashed part of the orbit path shows where the satellite is in the earth's shadow,  

DLR